Home > Weather > Nottingham > Past weeks

Flag for United Kingdom Past Weather in Nottingham, England, United Kingdom — Yesterday and Last 2 Weeks

Now
46 °F

Clear.


Feels Like: 44 °F
Forecast: 47 / 65 °F
Wind: 6 mph from East

Location: East Midlands

Current Time: May 29, 2016 at 1:13:03 AM

Latest Report: May 29, 2016 at 12:50 AM


Visibility: 10 mi

Pressure: 29.98 "Hg

Humidity: 93%

Dew Point: 45 °F

Location of NottinghamLocation

Past Weather in Nottingham — Graph

°F

Nottingham Temperature Yesterday

Maximum temperature yesterday: 63 °F (at 2:20 PM)
Minimum temperature yesterday: 43 °F (at 3:50 AM)
Average temperature yesterday: 54 °F

High & Low Weather Summary for the Past Weeks

 TemperatureHumidityPressure
High64 °F (May 17, 1:50 PM)100% (May 16, 5:50 AM)30.24 "Hg (May 16, 5:50 AM)
Low37 °F (May 14, 5:20 AM)39% (May 15, 5:50 PM)29.59 "Hg (May 18, 8:50 AM)
Average53 °F76%29.97 "Hg
* Reported May 13 11:20 PM — May 28 11:50 PM, Nottingham, Weather by CustomWeather, © 2016

Note: Actual official high and low records may vary slightly from our data, if they occured in-between our weather recording intervals... More about our weather records

Advertising

Nottingham Weather History for the Previous 24 Hours

Scroll right to see more
 ConditionsComfort  
Time TempWeatherWind HumidityBarometerVisibility
11:50 PM
Sat, May 28
50 °FClear.8 mph88%29.98 "Hg10 mi
11:20 PM50 °FClear.6 mph88%29.98 "Hg10 mi
10:50 PM50 °FClear.7 mph88%30.01 "Hg10 mi
10:20 PM52 °FClear.6 mph82%30.01 "Hg10 mi
9:50 PM52 °FSunny.7 mph82%30.01 "Hg10 mi
9:20 PM54 °FSunny.6 mph77%29.98 "Hg10 mi
8:50 PM55 °FSunny.7 mph72%29.98 "Hg10 mi
8:20 PM57 °FSunny.7 mph67%29.98 "Hg10 mi
7:50 PM59 °FSunny.9 mph63%29.98 "Hg10 mi
7:20 PM61 °FPassing clouds.10 mph59%29.98 "HgN/A
6:50 PM61 °FPassing clouds.8 mph63%29.98 "HgN/A
6:20 PM61 °FPartly sunny.9 mph63%29.98 "HgN/A
5:50 PM63 °FPartly sunny.7 mph59%29.98 "HgN/A
5:20 PM63 °FPartly sunny.6 mph59%29.98 "HgN/A
4:50 PM63 °FPartly sunny.7 mph59%29.98 "HgN/A
4:20 PM63 °FPartly sunny.7 mph59%30.01 "HgN/A
3:50 PM61 °FScattered clouds.8 mph59%30.01 "HgN/A
3:20 PM63 °FScattered clouds.8 mph59%30.01 "HgN/A
2:50 PM61 °FPartly sunny.9 mph59%30.01 "HgN/A
2:20 PM63 °FPartly sunny.7 mph64%30.01 "HgN/A
1:50 PM61 °FScattered clouds.7 mph59%30.01 "HgN/A
1:20 PM61 °FPassing clouds.7 mph63%30.01 "HgN/A
12:50 PM61 °FPassing clouds.8 mph68%30.04 "HgN/A
12:20 PM61 °FPassing clouds.7 mph63%30.04 "HgN/A
11:50 AM61 °FPassing clouds.8 mph59%30.04 "HgN/A
11:20 AM59 °FPassing clouds.8 mph63%30.04 "HgN/A
10:50 AM59 °FPassing clouds.8 mph63%30.04 "HgN/A
10:20 AM57 °FSunny.9 mph67%30.04 "Hg10 mi
9:20 AM55 °FPassing clouds.8 mph72%30.04 "HgN/A
8:50 AM54 °FPassing clouds.7 mph77%30.04 "HgN/A
8:20 AM52 °FPassing clouds.6 mph82%30.07 "HgN/A
7:20 AM46 °FClear.6 mph93%30.07 "Hg5 mi
6:50 AM45 °FClear.5 mph100%30.07 "Hg5 mi
6:20 AM45 °FClear.2 mph93%30.07 "Hg5 mi
5:50 AM45 °FClear.5 mph93%30.07 "Hg5 mi
5:20 AM43 °FClear.5 mph100%30.04 "Hg5 mi
4:50 AM45 °FClear.2 mph93%30.07 "Hg5 mi
4:20 AM43 °FClear.3 mph93%30.07 "Hg5 mi
3:50 AM43 °FClear.6 mph93%30.07 "Hg5 mi
3:20 AM45 °FClear.5 mph93%30.07 "Hg10 mi
2:50 AM45 °FClear.6 mph93%30.07 "Hg10 mi
2:20 AM45 °FClear.6 mph93%30.07 "Hg10 mi
1:50 AM46 °FClear.5 mph93%30.07 "Hg10 mi
1:20 AM46 °FClear.6 mph93%30.07 "Hg10 mi
Weather by CustomWeather, © 2016

See weather overviewHow to use our weather pages